, LA

(GMT )
Salt Point

Weather History for KP92 - October, 2011

Change the Weather History Date:

Wednesday, October 26, 2011

  Actual Average Record
Temperature  
Mean Temperature 72 °F -  
Max Temperature 80 °F 74 °F 84 °F (2010)
Min Temperature 63 °F 59 °F 50 °F (1999)
Cooling Degree Days 6    
Growing Degree Days 22 (Base 50)    
Moisture  
Dew Point 63 °F    
Average Humidity 76    
Maximum Humidity 93    
Minimum Humidity 48    
Precipitation  
Precipitation 0.01 in - - ()
Sea Level Pressure  
Sea Level Pressure 30.00 in    
Wind  
Wind Speed 1 mph (SE)    
Max Wind Speed 9 mph    
Max Gust Speed -    
Averages and records for this station are not official NWS values.
T = Trace of Precipitation, MM = Missing Value Source: NWS Daily Summary

Daily Weather History Graph

Daily Weather History Graph

Search for Another Location

Airport or City:

Trip Planner

Search our weather history database for the weather conditions in past years. The results will help you decide how hot, cold, wet, or windy it might be!

Date:

Astronomy

Oct. 26, 2011 Rise Set
Actual Time 7:13 AM CDT 6:23 PM CDT
Civil Twilight 6:49 AM CDT 6:48 PM CDT
Nautical Twilight 6:21 AM CDT 7:16 PM CDT
Astronomical Twilight 5:53 AM CDT 7:44 PM CDT
Moon 6:58 AM CDT (10/26) 6:12 PM CDT (10/26)
Length of Visible Light 11h 58m
Length of Day
11h 09m
Waning Crescent, 0% of the Moon is Illuminated
Oct 26
Waning Crescent
Oct 26
New
Nov 2
First Quarter
Nov 10
Full
Nov 18
Last Quarter

Hourly Weather History & Observations

Time (CDT) Temp. Heat Index Dew Point Humidity Pressure Visibility Wind Dir Wind Speed Gust Speed Precip Events Conditions
12:53 AM 66.0 °F - 63.0 °F 90% 30.07 in - Calm Calm - N/A   Unknown
1:53 AM 64.0 °F - 62.1 °F 93% 30.05 in - Calm Calm - N/A   Unknown
2:53 AM 64.0 °F - 62.1 °F 93% 30.04 in - Calm Calm - 0.01 in   Unknown
3:53 AM 63.0 °F - 61.0 °F 93% 30.03 in - Calm Calm - N/A   Unknown
4:53 AM 63.0 °F - 61.0 °F 93% 30.02 in - Calm Calm - N/A   Unknown
5:53 AM 63.0 °F - 61.0 °F 93% 30.02 in - Calm Calm - N/A   Unknown
6:53 AM 64.0 °F - 61.0 °F 90% 30.02 in - Calm Calm - N/A   Unknown
7:53 AM 64.9 °F - 62.1 °F 90% 30.04 in - Calm Calm - N/A   Unknown
8:53 AM 69.1 °F - 64.9 °F 87% 30.05 in - Calm Calm - N/A   Unknown
9:53 AM 73.9 °F - 64.9 °F 73% 30.06 in - SE 4.6 mph - N/A   Unknown
10:53 AM 77.0 °F - 63.0 °F 62% 30.06 in - SE 8.1 mph - N/A   Unknown
11:53 AM 78.1 °F - 62.1 °F 58% 30.05 in - SE 9.2 mph - N/A   Unknown
12:53 PM 79.0 °F - 62.1 °F 56% 30.04 in - Variable 5.8 mph - N/A   Unknown
1:53 PM 80.1 °F 80.7 °F 59.0 °F 48% 30.00 in - Variable 4.6 mph - N/A   Unknown
2:53 PM 80.1 °F 80.9 °F 60.1 °F 50% 29.97 in - Variable 5.8 mph - N/A   Unknown
3:53 PM 79.0 °F - 60.1 °F 52% 29.96 in - Variable 5.8 mph - N/A   Unknown
4:53 PM 78.1 °F - 61.0 °F 56% 29.95 in - Variable 3.5 mph - N/A   Unknown
5:53 PM 75.9 °F - 64.0 °F 67% 29.94 in - Calm Calm - N/A   Unknown
6:53 PM 73.0 °F - 64.9 °F 76% 29.94 in - Calm Calm - N/A   Unknown
7:53 PM 72.0 °F - 64.9 °F 78% 29.95 in - Calm Calm - N/A   Unknown
8:53 PM 71.1 °F - 64.9 °F 81% 29.96 in - Calm Calm - N/A   Unknown
9:53 PM 72.0 °F - 64.9 °F 78% 29.96 in - SE 3.5 mph - N/A   Unknown
10:53 PM 70.0 °F - 64.9 °F 84% 29.96 in - Calm Calm - N/A   Unknown
11:53 PM 69.1 °F - 64.9 °F 87% 29.95 in - Calm Calm - N/A   Unknown